Starlink 31496

operational
NORAD ID: 59211 Int'l Des: 2024-046 Owner: SPXS Country: US Constellation: starlink
LEOCIRCULAR

Starlink 31496について

説明を読み込み中...

リアルタイム位置

3D地球を読み込み中...

次回通過

高度履歴

Altitude vs Time

uPlot chart will show altitude changes over time

軌道要素

1 59211U 24046L 25303.61872934 .00003925 00000-0 14453-3 0 9996
2 59211 53.1618 26.8338 0001359 92.1440 267.9716 15.30207840 93305
Epoch: Oct 30, 2025 • Age: 30 hours

現在のステータス

高度 482.9 km
速度 7.62 km/s
衛星直下点 -24.64°S, 13.27°E
打ち上げ日 Mar 11, 2024
運用期間 1.6 years
タイプ internet

技術仕様

分類 Payload
質量 730.00 kg
乾燥質量 700.00 kg
総質量 730.00 kg
長さ 0.30 m
直径 4.10 m
スパン 29.00 m
形状 Box + pan
製造者 SPXS
バスタイプ Starlink V2M
フェーズステータス In Orbit
所有者/国 SPXS/US

大規模コンステレーション

Loading constellations...